This is the latest recevied weather packets stored in our database for station/object M0TJX-1. If no packets are shown the sender has not sent any weather packets the latest 10 day(s).
| Time | Temp. | Humidity | Pressure | Rain* | Wind** | Luminosity | Snow |
|---|---|---|---|---|---|---|---|
| 1787998220 | 17.78° C | 94% | 1001.2 hPa | 0 mm | - | - | - |
| 1787997320 | 17.22° C | 96% | 1001.3 hPa | 0 mm | - | - | - |
| 1787996420 | 16.67° C | 95% | 1001.8 hPa | 0 mm | - | - | - |
| 1787995520 | 16.67° C | 96% | 1001.8 hPa | 0 mm | - | - | - |
| 1787994620 | 16.67° C | 96% | 1002 hPa | 0.25 mm | - | - | - |
| 1787993720 | 16.11° C | 96% | 1002.3 hPa | 0.76 mm | - | - | - |
| 1787992820 | 16.11° C | 96% | 1002.6 hPa | 1.52 mm | - | - | - |
| 1787991920 | 16.11° C | 97% | 1002.7 hPa | 2.54 mm | - | - | - |
| 1787991020 | 15.56° C | 96% | 1002.9 hPa | 3.05 mm | - | - | - |
| 1787990120 | 15.56° C | 96% | 1003.3 hPa | 3.3 mm | - | - | - |
| 1787989220 | 16.11° C | 96% | 1003.4 hPa | 2.54 mm | - | - | - |
| 1787988320 | 16.11° C | 96% | 1003.7 hPa | 1.78 mm | - | - | - |
| 1787987420 | 16.11° C | 96% | 1003.8 hPa | 1.27 mm | - | - | - |
| 1787986520 | 16.11° C | 96% | 1004 hPa | 0.51 mm | - | - | - |
| 1787985620 | 16.11° C | 95% | 1004.2 hPa | 0.76 mm | - | - | - |
| 1787984720 | 16.11° C | 95% | 1004.5 hPa | 0.76 mm | - | - | - |
| 1787983820 | 16.11° C | 95% | 1004.7 hPa | 0.51 mm | - | - | - |
| 1787982920 | 16.11° C | 95% | 1004.9 hPa | 0.51 mm | - | - | - |
| 1787982020 | 16.11° C | 94% | 1005.1 hPa | 0.25 mm | - | - | - |
| 1787981120 | 16.11° C | 94% | 1005.2 hPa | 0 mm | - | - | - |
| 1787980220 | 16.11° C | 94% | 1005.3 hPa | 0 mm | - | - | - |
| 1787979320 | 16.11° C | 94% | 1005.5 hPa | 0 mm | - | - | - |
| 1787978420 | 16.11° C | 94% | 1005.6 hPa | 0 mm | - | - | - |
| 1787977520 | 16.11° C | 94% | 1005.8 hPa | 0 mm | - | - | - |
| 1787976620 | 15.56° C | 94% | 1006 hPa | 0 mm | - | - | - |
* Rain latest hour (hover to see other rain measurements)
** Current wind speed in m/s (hover to see current wind gust speed)